Theta_e
304 298 295 298 300 300 298 296 296 301 305 298 297 294 297 300 298 298 296 294 296 302 313 319 322 323 324 323 322 324 325 325 326 325 324 323 323 322 322 324 323 322 322 321
297 294 300 302 301 300 299 296 295 301 304 300 296 294 299 298 298 301 301 298 297 299 302 308 316 321 323 322 323 323 325 325 325 326 325 324 324 324 326 325 324 324 322 321
295 298 301 300 298 296 297 295 297 297 299 298 293 294 296 296 300 302 303 305 302 300 299 303 311 317 321 322 323 323 324 325 325 326 325 320 320 319 319 322 324 324 323 322
297 299 298 297 296 298 293 300 298 299 293 291 294 290 293 296 297 299 301 303 303 302 299 302 309 314 318 321 324 325 324 324 325 325 324 322 321 320 322 323 324 324 324 323
292 294 295 295 297 300 295 301 299 299 294 290 287 285 290 290 292 296 299 302 304 304 303 301 306 313 317 320 322 325 325 323 324 324 324 322 321 322 321 321 321 322 323 324
295 300 299 298 300 301 301 299 295 294 291 284 292 285 286 288 293 294 297 299 302 302 301 302 302 311 314 317 320 323 323 324 324 324 324 323 322 322 320 320 321 322 323 324
293 293 297 300 296 300 299 293 284 282 283 284 287 284 291 294 296 295 296 297 298 300 300 302 298 304 311 314 317 320 322 322 325 325 324 324 324 323 322 321 321 321 322 323
286 285 294 298 296 294 295 292 285 279 280 283 285 282 288 296 301 302 297 297 294 295 296 298 299 301 310 313 316 318 320 321 323 325 325 325 326 325 325 324 323 323 323 324
287 286 297 298 298 298 293 289 293 283 277 278 281 284 289 293 293 293 294 295 293 293 293 294 295 296 306 311 315 317 318 320 321 323 325 325 326 326 325 325 324 324 324 324
292 286 293 295 298 298 295 297 288 285 277 273 278 279 284 289 292 293 291 291 292 292 292 293 293 295 296 306 311 315 317 318 319 321 323 324 325 326 326 325 323 324 324 321
295 290 287 293 292 292 291 291 291 291 284 277 275 280 288 291 291 292 292 292 292 292 292 292 293 293 295 295 299 305 309 311 311 313 318 321 322 323 325 324 323 323 323 322
297 289 284 286 293 296 296 293 292 287 281 281 280 281 290 289 288 290 292 291 291 291 291 291 292 293 294 294 295 296 298 301 303 305 307 310 312 313 318 322 321 319 320 322
295 285 281 283 288 291 291 292 295 291 286 282 279 284 289 287 287 288 290 290 290 289 290 292 293 294 295 296 297 297 297 297 297 296 297 299 302 307 313 315 313 315 319 322
297 286 284 282 285 288 288 291 293 292 285 286 286 286 286 287 288 288 289 289 289 290 291 292 293 294 295 296 297 298 298 299 298 298 298 299 301 304 307 309 311 312 314 318
294 284 286 287 286 288 289 291 291 290 291 286 289 285 290 288 289 289 289 290 291 290 291 292 293 294 294 295 297 298 299 299 299 299 299 300 302 304 305 305 306 307 307 307
292 284 286 285 288 286 284 290 292 291 292 291 290 286 291 292 287 287 289 290 290 291 292 292 292 293 294 296 296 298 299 299 300 299 299 299 300 300 300 300 299 298 298 300
290 286 284 282 287 284 280 286 290 291 292 292 288 293 291 291 289 289 289 290 291 291 291 292 293 294 294 295 296 297 299 300 299 299 298 297 297 296 296 294 293 293 293 296
287 285 285 283 283 277 286 291 293 292 294 295 294 295 297 297 293 292 292 291 290 290 291 291 291 291 292 293 295 296 297 298 297 296 296 295 294 293 292 292 291 291 291 292
290 287 284 282 280 281 284 287 289 288 289 296 295 296 297 296 295 295 292 291 292 292 292 292 292 292 291 292 292 294 294 294 294 293 292 292 291 290 289 290 290 288 288 287
291 290 285 282 280 278 286 287 291 291 284 295 296 296 296 292 289 294 300 294 292 292 291 291 290 290 290 287 289 291 290 290 290 290 290 290 287 289 290 290 289 286 287 287
282 285 283 284 281 280 286 288 293 282 285 294 296 295 296 293 297 300 293 291 289 289 288 287 286 285 283 284 286 287 287 285 285 286 286 283 286 287 290 289 286 286 286 286
283 283 282 284 281 277 288 288 287 292 288 289 289 295 294 297 297 290 290 288 287 286 285 284 283 281 281 282 285 284 283 282 285 286 286 286 286 286 287 288 286 286 287 286
282 286 285 285 284 287 288 288 289 290 290 288 289 289 291 290 288 287 286 285 284 284 283 282 281 281 280 281 283 282 282 284 283 285 286 286 285 285 286 287 286 285 286 287
285 289 285 287 287 287 288 287 288 289 289 288 287 287 289 288 286 284 283 283 282 282 281 280 280 279 278 278 279 280 282 283 285 286 285 284 285 285 285 285 286 286 286 286
284 287 284 283 285 285 285 283 284 286 288 287 286 285 285 286 284 283 281 280 280 279 279 279 278 277 275 276 276 276 279 283 284 284 283 284 284 285 284 284 285 285 285 287
275 276 283 282 277 280 283 282 282 284 284 286 286 284 283 284 282 281 280 279 278 276 276 274 273 273 272 273 273 274 276 283 283 282 282 282 283 282 283 284 284 288 289 289
Wind_Speed
7 6 17 17 16 2 8 10 15 10 8 7 17 18 18 14 5 9 9 9 11 16 19 17 17 16 15 13 14 17 16 15 11 10 9 7 7 4 4 7 9 9 9 9
5 19 14 13 14 10 7 8 16 12 6 8 11 20 21 10 9 11 13 11 15 15 14 11 15 16 17 18 20 18 19 16 14 10 8 6 7 6 8 6 8 10 10 10
21 5 10 13 13 12 14 11 8 13 3 6 4 17 17 9 16 15 12 16 15 18 16 14 15 18 19 20 20 19 19 18 16 14 9 3 3 2 4 6 8 8 10 11
8 7 15 12 13 15 16 14 11 11 1 7 9 11 11 8 18 18 21 19 19 17 9 13 17 18 20 20 16 17 17 17 15 16 13 15 11 11 9 9 8 9 10 11
7 15 14 15 16 15 8 7 2 6 4 5 5 4 7 3 8 13 19 20 20 19 16 17 13 19 17 15 16 17 17 16 17 16 15 12 13 10 5 6 9 10 9 13
5 4 10 9 10 18 7 3 7 3 2 6 12 9 8 7 9 8 7 13 17 14 13 13 13 14 13 12 13 15 17 17 16 17 18 17 17 14 9 9 10 9 9 9
8 12 3 13 10 6 8 9 3 3 6 8 1 8 13 7 10 9 10 9 10 11 10 13 11 11 12 13 14 14 17 18 17 17 18 18 18 16 16 14 11 11 9 8
11 9 16 13 10 8 17 5 7 8 5 2 4 11 9 16 18 15 8 8 7 9 9 11 11 13 14 15 17 17 17 17 16 17 19 17 17 12 12 13 11 10 10 9
10 10 13 16 6 13 8 6 2 10 2 3 5 9 10 15 11 9 10 8 10 9 8 10 9 10 11 13 16 18 17 17 15 17 16 16 15 17 16 15 11 10 10 8
7 8 12 11 6 8 9 14 5 5 5 5 5 5 9 7 13 9 8 10 10 9 8 8 7 9 8 9 10 11 14 17 15 17 15 14 16 16 16 12 14 15 11 9
6 4 3 10 14 17 7 10 6 7 6 6 2 8 10 14 5 8 9 11 10 9 9 8 7 6 7 6 7 7 7 8 8 9 11 12 12 13 12 13 12 13 11 11
7 3 6 12 5 12 25 11 5 5 7 5 3 9 5 7 7 8 9 9 7 7 7 6 6 5 5 5 6 7 7 7 7 6 6 7 6 6 9 12 11 9 12 11
11 5 5 4 4 5 11 9 19 2 4 10 7 10 5 3 4 2 7 6 5 4 4 1 3 5 6 6 6 7 7 7 6 6 7 7 8 7 9 9 7 8 10 11
12 5 6 12 14 6 14 23 23 21 7 14 20 8 5 6 5 5 4 4 4 5 6 4 3 5 5 6 6 6 6 6 6 6 6 7 7 7 7 7 8 8 8 9
3 7 9 11 5 6 12 22 20 21 24 14 26 10 13 8 10 8 5 5 6 6 6 7 7 7 7 6 4 5 5 6 5 6 6 7 6 6 6 6 6 6 6 5
11 4 9 10 14 6 6 19 22 21 25 25 18 10 6 8 5 5 8 8 8 8 8 8 8 8 7 8 8 7 7 7 6 7 7 6 5 3 4 3 3 2 2 2
7 8 6 7 9 2 5 23 26 27 25 31 22 35 7 6 8 10 11 10 10 8 9 9 10 7 8 8 7 8 8 6 7 6 6 5 5 5 5 3 4 4 4 3
7 5 3 3 6 15 10 10 22 30 31 30 26 17 21 19 9 9 8 10 10 9 8 10 6 6 6 5 7 5 5 7 6 6 5 5 6 6 5 5 5 4 4 5
7 5 4 6 9 4 5 11 27 22 33 26 27 28 24 9 8 16 9 9 12 11 9 5 4 4 3 3 2 6 7 6 6 5 5 6 6 5 4 5 4 2 2 2
15 13 8 3 8 10 13 8 9 6 24 27 26 26 24 9 11 19 17 8 6 7 4 4 4 5 6 4 4 4 4 3 2 3 5 5 5 6 7 5 4 1 2 2
10 8 16 17 7 6 8 10 20 15 20 12 28 26 22 19 25 18 7 5 6 5 7 6 6 6 3 5 3 7 5 5 4 4 3 2 2 5 6 5 3 3 3 3
11 8 5 9 8 12 9 12 24 20 3 4 1 14 19 25 19 7 8 9 9 9 7 6 7 6 6 6 4 6 6 3 3 3 2 1 3 2 3 6 4 3 4 4
6 7 10 10 7 3 9 4 4 4 5 4 3 4 7 8 8 9 7 8 6 6 6 5 7 8 6 7 5 5 1 1 2 3 3 2 3 2 2 4 3 2 4 4
5 4 3 4 5 6 7 4 5 6 4 3 3 2 6 7 8 8 8 7 6 5 5 4 7 7 6 5 6 4 3 3 2 5 4 3 4 3 3 3 2 3 3 3
3 6 7 6 4 3 2 6 9 11 6 3 5 5 5 10 8 9 8 8 7 7 6 6 6 7 7 6 6 6 4 2 4 5 4 4 4 4 4 4 2 2 2 1
8 1 4 4 8 7 1 6 9 8 8 8 2 3 5 6 10 12 11 8 8 8 7 9 8 7 6 5 5 6 6 5 4 5 3 3 3 3 3 4 5 12 9 10
Wind_Direction
167 174 208 194 200 127 158 201 230 247 221 213 250 245 243 241 224 239 235 236 218 218 221 210 209 207 203 192 187 193 193 196 189 195 193 204 208 196 198 204 195 192 197 194
157 216 204 180 199 193 158 172 238 253 229 228 263 249 247 229 231 229 229 227 227 222 226 210 203 201 200 198 199 192 197 190 193 194 195 197 191 210 211 203 202 195 196 199
204 185 156 164 165 182 214 183 237 241 224 257 277 263 251 236 233 240 238 233 224 222 218 218 204 201 202 203 201 197 193 190 191 186 183 161 143 139 180 208 211 204 198 201
214 161 164 172 180 179 214 209 220 277 214 241 186 272 247 229 227 224 226 228 231 223 208 212 207 204 206 209 201 197 189 190 190 184 189 195 201 204 212 210 207 207 203 206
189 170 171 177 191 179 227 153 183 275 200 330 226 230 259 184 236 235 232 232 229 227 210 214 207 207 206 198 194 196 188 185 190 190 193 194 207 213 195 192 195 209 210 212
169 167 164 171 174 184 133 146 71 3 108 240 215 201 264 198 213 250 232 227 230 220 212 214 207 205 205 191 191 192 190 195 185 188 196 197 206 204 197 192 203 211 216 214
182 181 162 137 131 165 185 151 134 218 202 229 232 201 252 250 251 232 238 239 229 224 211 216 193 198 199 188 186 190 191 196 193 192 197 203 207 205 206 204 204 201 208 213
184 181 172 185 179 168 186 202 165 185 216 222 101 236 246 241 249 246 224 243 273 228 220 216 202 200 202 192 189 190 193 199 193 194 203 205 205 210 214 212 209 214 214 214
181 223 177 181 181 144 161 196 186 97 334 63 217 291 288 267 244 243 234 230 225 225 218 221 217 195 195 197 198 192 192 199 194 197 204 205 204 209 213 214 209 212 213 207
209 214 191 179 215 219 175 140 149 99 158 246 245 256 249 271 260 261 237 232 232 228 227 219 214 205 200 203 198 194 197 196 195 198 203 206 208 210 214 205 207 208 206 187
155 136 265 157 201 192 180 177 199 137 166 185 197 246 220 246 186 247 238 223 221 219 228 235 232 220 198 185 178 186 185 184 189 194 202 207 211 214 212 211 209 206 200 195
195 124 192 199 170 240 210 197 204 179 191 204 154 262 230 245 269 238 247 214 217 209 211 219 217 193 162 162 159 177 181 188 193 196 196 210 205 195 205 215 209 190 197 197
150 203 151 133 324 330 212 233 200 262 81 213 174 252 310 312 315 254 200 209 203 186 162 114 150 181 181 181 176 183 191 200 191 187 199 214 218 206 214 213 191 188 199 206
148 191 205 194 210 110 201 204 201 203 204 227 230 246 286 272 235 228 226 233 214 206 191 188 189 208 211 202 194 198 208 201 195 195 204 213 214 209 202 197 195 196 199 203
181 209 211 244 272 195 210 211 205 203 220 200 236 216 236 238 225 213 236 196 190 209 206 203 203 209 222 221 216 211 212 198 190 195 206 222 219 210 201 197 198 198 202 212
182 272 191 234 253 256 206 208 212 218 225 234 236 257 207 248 241 213 228 201 202 202 213 213 215 210 206 206 208 202 209 209 181 196 212 210 215 221 226 220 217 199 216 198
160 182 171 233 222 200 251 207 203 215 219 222 225 231 163 233 219 219 218 202 203 201 204 211 218 205 208 209 200 205 202 185 195 198 204 196 182 189 210 200 169 174 172 163
141 150 189 221 139 225 242 184 213 220 225 227 236 240 224 227 231 232 219 192 214 221 220 230 200 206 222 212 204 206 186 190 185 194 198 193 186 190 177 167 170 169 158 183
198 164 189 225 207 307 284 223 200 196 239 234 239 241 231 228 228 256 217 207 213 199 219 225 186 195 129 53 266 192 188 163 172 203 212 203 194 183 168 172 188 181 158 183
195 209 191 242 225 210 230 158 148 149 271 228 227 239 231 179 219 232 235 204 178 138 125 126 88 63 72 0 315 135 132 150 207 220 221 210 185 187 195 180 160 131 109 195
196 202 209 219 238 266 238 184 140 153 245 199 211 224 223 213 223 232 144 112 127 122 121 98 77 97 46 349 20 88 90 69 10 356 9 8 177 194 191 143 125 141 123 103
191 173 167 209 200 254 162 153 168 210 3 71 154 220 214 226 223 159 143 137 140 136 126 119 108 70 30 10 45 86 87 359 14 4 39 88 130 140 139 143 142 129 139 141
238 213 164 200 219 272 212 217 5 352 166 182 209 247 207 158 164 145 138 127 123 123 117 92 102 101 55 38 44 86 19 23 119 128 105 98 98 114 123 134 133 107 150 156
233 214 187 114 249 235 231 309 4 359 344 38 26 104 148 140 136 118 113 113 100 86 83 77 96 90 80 38 41 35 340 316 139 113 107 90 97 82 84 79 118 141 154 157
186 154 191 266 254 136 67 30 339 322 338 72 34 18 118 122 113 122 116 103 96 96 89 105 97 90 68 41 29 357 338 345 84 77 67 77 77 93 79 56 87 87 22 120
343 51 212 240 2 314 46 357 348 340 346 351 27 75 30 90 120 121 111 106 107 96 81 72 66 74 56 51 32 2 357 10 56 88 81 55 86 79 95 107 80 56 76 73